THOR ABLESTAR DEB, 3842

Orbit data source: Space-Track

THOR ABLESTAR DEB, 3842 is space debris in LEO originally from a launch on Thu, 29 Jun 1961 UTC launched from the Air Force Eastern Test Range (AFETR). Debris objects in space refer to the collection of defunct objects orbiting the Earth. Examples of debris include non-operational satellites, rocket bodies, and fragments generated from explosions, collisions, or faulty payload assembly.

Loading next visibility...
Identifier
3842, 1961-015JF
Orbit
LEO
Country
Flag of USUS
Related business
Manufacturer
Unknown
Mission
Spacecraft
Bus & Motor
Unknown
Mass
Unknown
Launch date (UTC)
1961-06-29 (65 years ago)
Launch vehicle
Unknown
Launch site
Air Force Eastern Test Range (AFETR)
Object type
Payload
Rocket body
Debris
Shape & HBR
Unknown shape, 0.1 m
Radar Cross Section
Medium (>0.1 m² and <1 m²)

Expand to show TLE details & history
Last TLE update: 16 hours ago

TLE from 16 hours ago
0 THOR ABLESTAR DEB
1  3842U 61015JF  26222.45280410  .00000050  00000-0  12833-3 0  9993
2  3842  66.7357 254.2429 0121841  73.4087 288.0321 13.72235328242623
Epoch: 2026-08-10T10:52Z
TLE epoch observation values (Epoch: 2026-08-10T10:52:02.274Z)
Latitude
-0.00001°
Longitude
132.29819°
Altitude
966.806 km
Speed
7.382 km/s
True Right ascension
16h 56m 58s
True Declination
0° 00' 00"
Sunlit
Object was in daylight at epoch
Visualization orbit readout
Latitude
Unknown
Longitude
Unknown
Altitude
Unknown
Speed
Unknown
Apparent Right ascension
Unknown
Apparent Declination
Unknown
Sunlit
N/A
Visualization observer readout
Local Sidereal Time
17:01:53
Azimuth
Unknown
Elevation
Unknown
Doppler factor
Unknown
Orbital elements
Apogee altitude
1,079.745 km
Perigee altitude
900.198 km
Semi-major axis
7,368.109 km
Eccentricity
0.01218
Inclination
66.7357°
RAAN
254.2429°
Arg. of periapsis
73.4087°
True anomaly
286.69831°
Mean anomaly
288.0321°
Eccentric anomaly
287.36582°
Mean motion
3.4317 °/min
Orbital period
104.9 mins
BSTAR
0.00012833

Documentation

Showing up to 5 results
|